Miscellaneous Local Product
Issued by NWS North Platte, NE

Home | Current Version | Previous Version | Text Only | Print | Product List | Glossary On
Versions: 1 2 3 4 5 6 7 8 9 10 11 12 13 14 15 16 17 18 19 20 21 22 23 24 25 26 27 28 29 30 31 32 33 34 35 36 37 38 39 40 41 42 43 44 45 46 47 48 49 50
000
AXUS43 KLBF 280110
MISLBF


WESTERN AND NORTH CENTRAL NEBRASKA HOURLY WEATHER ROUNDUP
NATIONAL WEATHER SERVICE NORTH PLATTE NE
800 PM CDT MON JUL 27 2015

***STATIONS NOT REPORTING VARIABLES SUCH AS SKY/WEATHER OR
PRESSURE ARE PROVIDED BY THE NEBRASKA DEPARTMENT OF
ROADS...RAWS...AND APRS NETWORKS...AND ARE NOT UNDER
NATIONAL WEATHER SERVICE QUALITY CONTROL***

...OBSERVATIONS IN AND NEAR THE EASTERN PANHANDLE OF NEBRASKA...

CITY           SKY/WX    TMP DP  RH WIND       PRES   REMARKS
PINE RIDGE     SUNNY     88  61  40 S13G22    29.66R
CHADRON        MOSUNNY   73  57  57 NW23G44   29.71R
ALLIANCE       MOSUNNY   85  66  53 S8        29.72R
SIDNEY         MOSUNNY   93  56  28 S18G24    29.75S HX  91
BIG SPRINGS      N/A     89  71  54 SE13        N/A  HX  94
$$

...OBSERVATIONS IN NORTH CENTRAL NEBRASKA...

CITY           SKY/WX    TMP DP  RH WIND       PRES   REMARKS
VALENTINE      MOSUNNY   90  69  50 S23       29.67F HX  94
THEDFORD       MOSUNNY   89  71  54 S17G24    29.73S HX  94
AINSWORTH      SUNNY     87  70  57 S22G28    29.71F HX  92
O`NEILL        PTCLDY    86  72  63 S18G25    29.76S HX  92
ORD            CLEAR     86  72  62 SE18G26   29.75S HX  92
BROKEN BOW     CLEAR     88  71  57 S16G26    29.75F HX  94
SPRINGVIEW       N/A     87  73  63 SE10G17     N/A  HX  94
CHAMBERS         N/A     85  71  63 W3G13       N/A  HX  90
EWING            N/A     83  75  77 SE5         N/A  HX  90
$$

...OBSERVATIONS IN SOUTHWEST NEBRASKA AND FAR NORTHEAST COLORADO...

CITY           SKY/WX    TMP DP  RH WIND       PRES   REMARKS
WRAY           FAIR      92  64  39 SE17G26   29.74S HX  93
HOLYOKE        FAIR      91  66  43 S17G25    29.73F HX  94
IMPERIAL       SUNNY     92  66  42 S18G29    29.72F HX  94
OGALLALA       MOSUNNY   89  68  49 S18G24    29.71S HX  93
NORTH PLATTE   PTSUNNY   88  71  57 SE13G22   29.71F HX  94
MCCOOK         SUNNY     92  69  47 S16G24    29.72F HX  97
LEXINGTON      PTCLDY    88  73  61 SE14      29.75F HX  96
PAXTON           N/A     87  73  63 SE12        N/A  HX  94
BRADY            N/A     86  73  64 CALM        N/A  HX  93
CALLAWAY         N/A     84  77  79 SE13        N/A  HX  93
$$

...NORTH PLATTE AREA...

CITY           SKY/WX    TMP DP  RH WIND       PRES   REMARKS
AIRPORT        PTSUNNY   88  71  57 SE13G22   29.71F HX  94
DOWNTOWN         N/A     90  73  56 S6G14       N/A  HX  97
HILLCREST        N/A     88  72  59 SE15G23     N/A  HX  95
$$

...SOME WEATHER OBSERVATIONS FROM AROUND THE REGION...

CITY           SKY/WX    TMP DP  RH WIND       PRES   REMARKS
DENVER         PTSUNNY   92  44  19 S14       29.83S
LARAMIE        MOSUNNY   79  33  19 SW22G38   30.00R
CHEYENNE       MOSUNNY   87  42  20 W18G26    29.89R
SCOTTSBLUFF    PTSUNNY   76  58  53 NE13      29.72S THUNDER
RAPID CITY     CLOUDY    66  63  90 NE15      29.68R THUNDER
PIERRE         SUNNY     89  67  47 SE21G26   29.61F HX  92
WINNER         FAIR      89  69  51 SE17G29   29.66F HX  93
SIOUX FALLS    PTCLDY    83  73  72 SE15G22   29.79S
OMAHA          MOCLDY    80  70  71 SE17      29.84F
GRAND ISLAND   CLEAR     84  74  71 SE14      29.79F HX  91
KANSAS CITY    MOCLDY    88  77  69 SE8       29.88R HX 100
WICHITA        PTCLDY    91  64  40 S15       29.83S HX  92
HAYS           CLEAR     91  66  43 S17G23    29.78S HX  94
LIBERAL        MOCLDY    93  64  38 S22G28    29.82S HX  95
GOODLAND       MOSUNNY   89  67  47 SE13      29.77F HX  92
$$



USA.gov is the U.S. government's official web portal to all federal, state and local government web resources and services.